| time (UTC) | temp F | wind direction | speed MPH | gust MPH | rain 1hr in | rain 24hr in | rain mn in | humidity % | barometer mb |
| 20260505002629 | 72 | 181 | 3.0 | 9.0 | 0.00 | 0.00 | 0.00 | 26 | 1005.6 |
| 20260505001629 | 73 | 134 | 3.0 | 9.0 | 0.00 | 0.00 | 0.00 | 26 | 1005.7 |
| 20260505000623 | 73 | 176 | 7.0 | 13.0 | 0.00 | 0.00 | 0.00 | 27 | 1005.8 |
| 20260504235623 | 73 | 161 | 6.0 | 10.0 | 0.00 | 0.00 | 0.00 | 28 | 1005.9 |
| 20260504234626 | 73 | 94 | 8.0 | 14.0 | 0.00 | 0.00 | 0.00 | 27 | 1005.8 |
| 20260504233626 | 73 | 138 | 7.0 | 16.0 | 0.00 | 0.00 | 0.00 | 29 | 1005.8 |
| 20260504232624 | 71 | 178 | 8.0 | 16.0 | 0.00 | 0.00 | 0.00 | 30 | 1005.9 |
| 20260504231620 | 71 | 96 | 11.0 | 16.0 | 0.00 | 0.00 | 0.00 | 29 | 1006.2 |
| 20260504230641 | 72 | 70 | 14.0 | 25.0 | 0.00 | 0.00 | 0.00 | 28 | 1006.1 |
| 20260504225639 | 74 | 136 | 13.0 | 19.0 | 0.00 | 0.00 | 0.00 | 27 | 1006.3 |
| 20260504224617 | 75 | 216 | 5.0 | 12.0 | 0.00 | 0.00 | 0.00 | 23 | 1006.0 |
| 20260504223617 | 74 | 268 | 8.0 | 15.0 | 0.00 | 0.00 | 0.00 | 26 | 1005.9 |
| 20260504222618 | 75 | 238 | 10.0 | 16.0 | 0.00 | 0.00 | 0.00 | 28 | 1006.0 |
| 20260504221622 | 74 | 248 | 9.0 | 19.0 | 0.00 | 0.00 | 0.00 | 28 | 1005.9 |
| 20260504220622 | 75 | 259 | 9.0 | 15.0 | 0.00 | 0.00 | 0.00 | 26 | 1005.9 |
| 20260504215623 | 75 | 316 | 5.0 | 10.0 | 0.00 | 0.00 | 0.00 | 23 | 1005.8 |
| 20260504214620 | 75 | 285 | 8.0 | 15.0 | 0.00 | 0.00 | 0.00 | 24 | 1005.9 |
| 20260504213639 | 76 | 268 | 2.0 | 10.0 | 0.00 | 0.00 | 0.00 | 23 | 1006.1 |
| 20260504212622 | 76 | 249 | 4.0 | 11.0 | 0.00 | 0.00 | 0.00 | 23 | 1006.2 |
| 20260504211621 | 75 | 209 | 4.0 | 12.0 | 0.00 | 0.00 | 0.00 | 23 | 1006.4 |
| 20260504210621 | 76 | 248 | 5.0 | 10.0 | 0.00 | 0.00 | 0.00 | 24 | 1006.4 |
| 20260504205621 | 75 | 213 | 3.0 | 7.0 | 0.00 | 0.00 | 0.00 | 25 | 1006.5 |
| 20260504204640 | 75 | 229 | 4.0 | 9.0 | 0.00 | 0.00 | 0.00 | 23 | 1006.5 |
| 20260504203625 | 75 | 280 | 5.0 | 11.0 | 0.00 | 0.00 | 0.00 | 25 | 1006.8 |
| 20260504202625 | 75 | 57 | 1.0 | 8.0 | 0.00 | 0.00 | 0.00 | 24 | 1006.8 |
| 20260504201626 | 75 | 277 | 3.0 | 11.0 | 0.00 | 0.00 | 0.00 | 26 | 1006.9 |
| 20260504200624 | 75 | 284 | 5.0 | 9.0 | 0.00 | 0.00 | 0.00 | 25 | 1007.0 |
| 20260504195623 | 74 | 19 | 0.0 | 8.0 | 0.00 | 0.00 | 0.00 | 26 | 1007.1 |
| 20260504194627 | 74 | 316 | 5.0 | 11.0 | 0.00 | 0.00 | 0.00 | 26 | 1007.3 |
| 20260504193626 | 74 | 272 | 3.0 | 9.0 | 0.00 | 0.00 | 0.00 | 26 | 1007.4 |
| 20260504192624 | 74 | 284 | 3.0 | 7.0 | 0.00 | 0.00 | 0.00 | 26 | 1007.4 |
| 20260504191624 | 74 | 344 | 5.0 | 9.0 | 0.00 | 0.00 | 0.00 | 25 | 1007.5 |
| 20260504190630 | 74 | 317 | 1.0 | 8.0 | 0.00 | 0.00 | 0.00 | 25 | 1007.7 |
| 20260504185632 | 73 | 13 | 5.0 | 9.0 | 0.00 | 0.00 | 0.00 | 26 | 1007.9 |
| 20260504184631 | 73 | 350 | 7.0 | 12.0 | 0.00 | 0.00 | 0.00 | 26 | 1007.9 |
| 20260504183631 | 72 | 26 | 6.0 | 11.0 | 0.00 | 0.00 | 0.00 | 26 | 1007.9 |
| 20260504182632 | 73 | 313 | 3.0 | 8.0 | 0.00 | 0.00 | 0.00 | 28 | 1008.2 |
| 20260504181635 | 72 | 284 | 5.0 | 9.0 | 0.00 | 0.00 | 0.00 | 28 | 1008.3 |
| 20260504180645 | 72 | 273 | 5.0 | 9.0 | 0.00 | 0.00 | 0.00 | 27 | 1008.4 |
| 20260504175646 | 72 | 206 | 3.0 | 9.0 | 0.00 | 0.00 | 0.00 | 26 | 1008.5 |
| 20260504174623 | 72 | 286 | 4.0 | 8.0 | 0.00 | 0.00 | 0.00 | 29 | 1008.6 |
| 20260504173621 | 71 | 245 | 3.0 | 8.0 | 0.00 | 0.00 | 0.00 | 28 | 1008.7 |
| 20260504172621 | 70 | 263 | 1.0 | 6.0 | 0.00 | 0.00 | 0.00 | 29 | 1008.7 |
| 20260504171625 | 70 | 254 | 5.0 | 8.0 | 0.00 | 0.00 | 0.00 | 29 | 1008.9 |
| 20260504170624 | 70 | 286 | 5.0 | 8.0 | 0.00 | 0.00 | 0.00 | 31 | 1008.9 |
| 20260504150648 | 66 | 301 | 2.0 | 4.0 | 0.00 | 0.00 | 0.00 | 40 | 1009.4 |
| 20260504140630 | 63 | 355 | 2.0 | 3.0 | 0.00 | 0.00 | 0.00 | 44 | 1009.6 |
| 20260504130633 | 61 | 157 | 4.0 | 8.0 | 0.00 | 0.00 | 0.00 | 39 | 1009.5 |
| 20260504110632 | 58 | 86 | 2.0 | 4.0 | 0.00 | 0.00 | 0.00 | 40 | 1009.4 |
| 20260504081628 | 57 | 107 | 0.0 | 2.0 | 0.00 | 0.00 | 0.00 | 44 | 1008.2 |
| 20260504080630 | 57 | 107 | 0.0 | 3.0 | 0.00 | 0.00 | 0.00 | 41 | 1008.3 |
| 20260504050620 | 64 | 140 | 0.0 | 0.0 | 0.00 | 0.00 | 0.00 | 34 | 1008.7 |
| 20260504045627 | 64 | 140 | 0.0 | 0.0 | 0.00 | 0.00 | 0.00 | 32 | 1008.8 |
| 20260504044628 | 65 | 140 | 0.0 | 0.0 | 0.00 | 0.00 | 0.00 | 38 | 1008.8 |
| 20260504043630 | 65 | 140 | 0.0 | 0.0 | 0.00 | 0.00 | 0.00 | 23 | 1008.8 |
| 20260504042631 | 66 | 140 | 0.0 | 0.0 | 0.00 | 0.00 | 0.00 | 24 | 1008.9 |
| 20260504041651 | 67 | 140 | 0.0 | 0.0 | 0.00 | 0.00 | 0.00 | 24 | 1008.9 |
| 20260504040616 | 67 | 140 | 0.0 | 0.0 | 0.00 | 0.00 | 0.00 | 23 | 1008.8 |
| 20260504035617 | 67 | 140 | 0.0 | 0.0 | 0.00 | 0.00 | 0.00 | 23 | 1008.9 |
| 20260504034617 | 68 | 141 | 0.0 | 2.0 | 0.00 | 0.00 | 0.00 | 22 | 1008.9 |
| 20260504033620 | 68 | 141 | 0.0 | 2.0 | 0.00 | 0.00 | 0.00 | 21 | 1008.9 |
| 20260504032618 | 68 | 141 | 1.0 | 4.0 | 0.00 | 0.00 | 0.00 | 21 | 1008.9 |
| 20260504031620 | 68 | 141 | 2.0 | 5.0 | 0.00 | 0.00 | 0.00 | 22 | 1009.0 |
| 20260504030621 | 69 | 115 | 3.0 | 4.0 | 0.00 | 0.00 | 0.00 | 23 | 1009.0 |
| 20260504025630 | 69 | 109 | 3.0 | 4.0 | 0.00 | 0.00 | 0.00 | 24 | 1008.9 |
| 20260504024637 | 70 | 44 | 0.0 | 3.0 | 0.00 | 0.00 | 0.00 | 24 | 1008.9 |
| 20260504023617 | 70 | 44 | 1.0 | 4.0 | 0.00 | 0.00 | 0.00 | 25 | 1008.8 |
| 20260504022620 | 70 | 304 | 0.0 | 2.0 | 0.00 | 0.00 | 0.00 | 30 | 1008.8 |